Time,TemperatureF,DewpointF,PressureIn,WindDirection,WindDirectionDegrees,WindSpeedMPH,WindSpeedGustMPH,Humidity,HourlyPrecipIn,Conditions,Clouds,dailyrainin,SoftwareType,DateUTC
2013-08-25 00:01:00,60.6,54.8,30.56,ENE,68,0.6,0.0,81,0.00,,CLR,0.00,VWS V13.01,2013-08-25 04:01:00,
2013-08-25 00:02:00,60.6,54.8,30.56,ENE,68,0.6,0.0,81,0.00,,CLR,0.00,VWS V13.01,2013-08-25 04:02:00,
2013-08-25 00:04:00,60.6,54.8,30.56,ENE,68,0.6,0.0,81,0.00,,CLR,0.00,VWS V13.01,2013-08-25 04:04:00,
2013-08-25 00:09:00,60.6,54.8,30.56,ENE,68,0.6,0.0,81,0.00,,CLR,0.00,VWS V13.01,2013-08-25 04:09:00,
2013-08-25 00:14:00,60.4,54.5,30.56,East,90,0.6,0.0,80,0.00,,CLR,0.00,VWS V13.01,2013-08-25 04:14:00,
2013-08-25 00:19:00,60.4,54.5,30.56,East,90,0.6,0.0,81,0.00,,CLR,0.00,VWS V13.01,2013-08-25 04:19:00,
2013-08-25 00:24:00,60.4,54.5,30.56,East,90,0.6,0.0,81,0.00,,CLR,0.00,VWS V13.01,2013-08-25 04:24:00,
2013-08-25 00:29:00,60.4,54.5,30.56,East,90,0.6,0.0,81,0.00,,CLR,0.00,VWS V13.01,2013-08-25 04:29:00,
2013-08-25 00:34:00,60.4,54.7,30.56,East,90,0.6,0.0,81,0.00,,CLR,0.00,VWS V13.01,2013-08-25 04:34:00,
2013-08-25 00:39:00,60.0,54.5,30.56,East,90,0.6,0.0,82,0.00,,CLR,0.00,VWS V13.01,2013-08-25 04:39:00,
2013-08-25 00:44:00,60.0,54.5,30.56,East,90,0.6,0.0,82,0.00,,CLR,0.00,VWS V13.01,2013-08-25 04:44:00,
2013-08-25 00:49:00,60.0,54.5,30.56,East,90,0.6,0.0,82,0.00,,CLR,0.00,VWS V13.01,2013-08-25 04:49:00,
2013-08-25 00:54:00,60.0,54.4,30.56,East,90,0.6,0.0,82,0.00,,CLR,0.00,VWS V13.01,2013-08-25 04:54:00,
2013-08-25 00:59:00,59.9,54.2,30.56,East,90,0.6,0.0,82,0.00,,CLR,0.00,VWS V13.01,2013-08-25 04:59:00,
2013-08-25 01:04:00,59.7,54.2,30.56,East,90,0.6,0.0,82,0.00,,BKN050,0.00,VWS V13.01,2013-08-25 05:04:00,
2013-08-25 01:09:00,59.7,54.0,30.57,East,90,0.6,0.0,82,0.00,,BKN050,0.00,VWS V13.01,2013-08-25 05:09:00,
2013-08-25 01:14:00,59.5,54.3,30.57,East,90,0.6,0.0,82,0.00,,BKN050,0.00,VWS V13.01,2013-08-25 05:14:00,
2013-08-25 01:19:00,59.5,54.2,30.57,East,90,0.6,0.0,83,0.00,,BKN050,0.00,VWS V13.01,2013-08-25 05:19:00,
2013-08-25 01:24:00,59.3,54.0,30.56,East,90,0.6,0.0,83,0.00,,BKN050,0.00,VWS V13.01,2013-08-25 05:24:00,
2013-08-25 01:29:00,59.1,54.0,30.57,East,90,0.6,0.0,83,0.00,,BKN050,0.00,VWS V13.01,2013-08-25 05:29:00,
2013-08-25 01:34:00,59.0,53.7,30.56,East,90,0.6,0.0,83,0.00,,BKN050,0.00,VWS V13.01,2013-08-25 05:34:00,
2013-08-25 01:39:00,58.8,53.7,30.56,East,90,0.6,0.0,83,0.00,,BKN050,0.00,VWS V13.01,2013-08-25 05:39:00,
2013-08-25 01:44:00,58.8,53.5,30.56,East,90,0.6,0.0,83,0.00,,OVC050,0.00,VWS V13.01,2013-08-25 05:44:00,
2013-08-25 01:49:00,58.4,53.1,30.56,East,90,0.6,0.0,83,0.00,,OVC050,0.00,VWS V13.01,2013-08-25 05:49:00,
2013-08-25 01:54:00,58.2,53.0,30.56,East,90,0.6,0.0,83,0.00,,OVC050,0.00,VWS V13.01,2013-08-25 05:54:00,
2013-08-25 01:59:00,58.1,52.8,30.56,East,90,0.6,0.0,83,0.00,,OVC050,0.00,VWS V13.01,2013-08-25 05:59:00,
2013-08-25 02:04:00,57.9,52.8,30.56,East,90,0.6,0.0,83,0.00,,OVC050,0.00,VWS V13.01,2013-08-25 06:04:00,
2013-08-25 02:09:00,57.9,52.6,30.55,East,90,0.6,0.0,83,0.00,,OVC050,0.00,VWS V13.01,2013-08-25 06:09:00,
2013-08-25 02:14:00,57.7,52.8,30.56,East,90,0.6,0.0,83,0.00,,OVC050,0.00,VWS V13.01,2013-08-25 06:14:00,
2013-08-25 02:19:00,57.5,52.7,30.56,East,90,0.6,0.0,84,0.00,,OVC050,0.00,VWS V13.01,2013-08-25 06:19:00,
2013-08-25 02:24:00,57.5,52.5,30.55,East,90,0.6,0.0,84,0.00,,OVC050,0.00,VWS V13.01,2013-08-25 06:24:00,
2013-08-25 02:29:00,57.3,52.2,30.55,East,90,0.6,0.0,84,0.00,,OVC050,0.00,VWS V13.01,2013-08-25 06:29:00,
2013-08-25 02:34:00,57.3,52.2,30.56,East,90,0.6,0.0,84,0.00,,OVC050,0.00,VWS V13.01,2013-08-25 06:34:00,
2013-08-25 02:39:00,57.0,52.5,30.55,East,90,0.6,0.0,84,0.00,,OVC050,0.00,VWS V13.01,2013-08-25 06:39:00,
2013-08-25 02:44:00,57.0,52.5,30.55,East,90,0.6,0.0,84,0.00,,CLR,0.00,VWS V13.01,2013-08-25 06:44:00,
2013-08-25 02:49:00,57.0,52.5,30.56,East,90,0.6,0.0,84,0.00,,CLR,0.00,VWS V13.01,2013-08-25 06:49:00,
2013-08-25 02:54:00,57.0,52.9,30.55,East,90,0.6,0.0,85,0.00,,CLR,0.00,VWS V13.01,2013-08-25 06:54:00,
2013-08-25 02:59:00,56.8,52.5,30.56,East,90,0.6,0.0,85,0.00,,CLR,0.00,VWS V13.01,2013-08-25 06:59:00,
2013-08-25 03:04:00,56.8,52.3,30.55,East,90,0.6,0.0,85,0.00,,CLR,0.00,VWS V13.01,2013-08-25 07:04:00,
2013-08-25 03:09:00,56.8,52.0,30.55,East,90,0.6,0.0,85,0.00,,CLR,0.00,VWS V13.01,2013-08-25 07:09:00,
2013-08-25 03:14:00,56.8,52.0,30.55,East,90,0.6,0.0,85,0.00,,CLR,0.00,VWS V13.01,2013-08-25 07:14:00,
2013-08-25 03:19:00,56.8,51.9,30.56,East,90,0.6,0.0,85,0.00,,CLR,0.00,VWS V13.01,2013-08-25 07:19:00,
2013-08-25 03:24:00,56.8,51.7,30.56,East,90,57.0,0.0,85,0.00,,CLR,0.00,VWS V13.01,2013-08-25 07:24:00,
2013-08-25 03:29:00,55.9,51.7,30.56,East,90,57.0,0.0,86,0.00,,CLR,0.00,VWS V13.01,2013-08-25 07:29:00,
2013-08-25 03:34:00,55.9,51.8,30.56,East,90,57.0,0.0,85,0.00,,CLR,0.00,VWS V13.01,2013-08-25 07:34:00,
2013-08-25 03:39:00,55.9,51.6,30.56,East,90,57.0,0.0,86,0.00,,CLR,0.00,VWS V13.01,2013-08-25 07:39:00,
2013-08-25 03:44:00,55.9,51.6,30.56,East,90,57.0,0.0,86,0.00,,,0.00,VWS V13.01,2013-08-25 07:44:00,
2013-08-25 03:49:00,55.9,51.4,30.56,East,90,57.0,0.0,86,0.00,,,0.00,VWS V13.01,2013-08-25 07:49:00,
2013-08-25 03:54:00,55.9,51.3,30.56,East,90,57.0,0.0,86,0.00,,,0.00,VWS V13.01,2013-08-25 07:54:00,
2013-08-25 03:59:00,55.9,51.1,30.56,East,90,57.0,0.0,86,0.00,,,0.00,VWS V13.01,2013-08-25 07:59:00,
2013-08-25 04:04:00,55.2,51.1,30.56,East,90,57.0,0.0,86,0.00,,,0.00,VWS V13.01,2013-08-25 08:04:00,
2013-08-25 04:09:00,55.2,51.1,30.56,East,90,57.0,0.0,86,0.00,,,0.00,VWS V13.01,2013-08-25 08:09:00,
2013-08-25 04:14:00,55.2,51.4,30.56,East,90,57.0,0.0,86,0.00,,,0.00,VWS V13.01,2013-08-25 08:14:00,
2013-08-25 04:19:00,55.2,51.4,30.56,East,90,57.0,0.0,86,0.00,,,0.00,VWS V13.01,2013-08-25 08:19:00,
2013-08-25 04:24:00,55.2,51.4,30.56,East,90,57.0,0.0,86,0.00,,,0.00,VWS V13.01,2013-08-25 08:24:00,
2013-08-25 04:29:00,55.2,51.4,30.57,East,90,57.0,0.0,86,0.00,,,0.00,VWS V13.01,2013-08-25 08:29:00,
2013-08-25 04:34:00,55.2,51.4,30.57,East,90,57.0,0.0,87,0.00,,,0.00,VWS V13.01,2013-08-25 08:34:00,
2013-08-25 04:39:00,55.2,51.2,30.58,East,90,57.0,0.0,87,0.00,,,0.00,VWS V13.01,2013-08-25 08:39:00,
2013-08-25 04:44:00,55.2,51.2,30.58,East,90,57.0,0.0,87,0.00,,,0.00,VWS V13.01,2013-08-25 08:44:00,
2013-08-25 04:49:00,55.2,51.2,30.58,East,90,57.0,0.0,87,0.00,,,0.00,VWS V13.01,2013-08-25 08:49:00,
2013-08-25 04:54:00,55.0,51.2,30.58,East,90,57.0,0.0,87,0.00,,,0.00,VWS V13.01,2013-08-25 08:54:00,
2013-08-25 04:59:00,55.0,51.0,30.58,East,90,57.0,0.0,87,0.00,,,0.00,VWS V13.01,2013-08-25 08:59:00,
2013-08-25 05:04:00,54.8,51.0,30.57,East,90,57.0,0.0,87,0.00,,,0.00,VWS V13.01,2013-08-25 09:04:00,
2013-08-25 05:09:00,54.8,50.8,30.57,East,90,57.0,0.0,87,0.00,,,0.00,VWS V13.01,2013-08-25 09:09:00,
2013-08-25 05:14:00,54.8,50.8,30.57,East,90,57.0,0.0,87,0.00,,,0.00,VWS V13.01,2013-08-25 09:14:00,
2013-08-25 05:19:00,54.8,50.8,30.58,East,90,57.0,0.0,87,0.00,,,0.00,VWS V13.01,2013-08-25 09:19:00,
2013-08-25 05:24:00,54.8,50.8,30.57,East,90,57.0,0.0,87,0.00,,,0.00,VWS V13.01,2013-08-25 09:24:00,
2013-08-25 05:29:00,54.8,50.8,30.58,East,90,57.0,0.0,87,0.00,,,0.00,VWS V13.01,2013-08-25 09:29:00,
2013-08-25 05:34:00,54.8,50.7,30.58,East,90,57.0,0.0,87,0.00,,,0.00,VWS V13.01,2013-08-25 09:34:00,
2013-08-25 05:39:00,54.8,50.7,30.58,East,90,57.0,0.0,87,0.00,,,0.00,VWS V13.01,2013-08-25 09:39:00,
2013-08-25 05:44:00,54.3,51.0,30.58,East,90,57.0,0.0,87,0.00,,,0.00,VWS V13.01,2013-08-25 09:44:00,
2013-08-25 05:49:00,54.8,50.5,30.59,East,90,57.0,0.0,87,0.00,,,0.00,VWS V13.01,2013-08-25 09:49:00,
2013-08-25 05:54:00,54.8,50.5,30.59,East,90,57.0,0.0,87,0.00,,,0.00,VWS V13.01,2013-08-25 09:54:00,
2013-08-25 05:59:00,54.8,50.5,30.59,East,90,57.0,0.0,87,0.00,,,0.00,VWS V13.01,2013-08-25 09:59:00,
2013-08-25 06:04:00,54.8,50.8,30.59,East,90,57.0,0.0,87,0.00,,,0.00,VWS V13.01,2013-08-25 10:04:00,
2013-08-25 06:09:00,54.3,50.8,30.59,East,90,57.0,0.0,88,0.00,,,0.00,VWS V13.01,2013-08-25 10:09:00,
2013-08-25 06:14:00,54.1,50.6,30.59,East,90,57.0,0.0,88,0.00,,,0.00,VWS V13.01,2013-08-25 10:14:00,
2013-08-25 06:19:00,54.1,50.6,30.60,East,90,57.0,0.0,88,0.00,,,0.00,VWS V13.01,2013-08-25 10:19:00,
2013-08-25 06:24:00,54.1,50.6,30.60,East,90,57.0,0.0,88,0.00,,,0.00,VWS V13.01,2013-08-25 10:24:00,
2013-08-25 06:29:00,54.1,50.6,30.61,East,90,57.0,0.0,88,0.00,,,0.00,VWS V13.01,2013-08-25 10:29:00,
2013-08-25 06:34:00,54.1,50.4,30.61,East,90,57.0,0.0,88,0.00,,,0.00,VWS V13.01,2013-08-25 10:34:00,
2013-08-25 06:39:00,54.1,50.4,30.61,East,90,57.0,0.0,88,0.00,,,0.00,VWS V13.01,2013-08-25 10:39:00,
2013-08-25 06:44:00,54.1,50.2,30.62,East,90,57.0,0.0,88,0.00,,,0.00,VWS V13.01,2013-08-25 10:44:00,
2013-08-25 06:49:00,54.1,50.2,30.62,East,90,57.0,0.0,88,0.00,,,0.00,VWS V13.01,2013-08-25 10:49:00,
2013-08-25 06:54:00,54.1,50.2,30.62,East,90,57.0,0.0,88,0.00,,,0.00,VWS V13.01,2013-08-25 10:54:00,
2013-08-25 06:59:00,54.1,50.2,30.62,East,90,57.0,0.0,88,0.00,,,0.00,VWS V13.01,2013-08-25 10:59:00,
2013-08-25 07:04:00,53.7,50.2,30.62,East,90,57.0,0.0,88,0.00,,,0.00,VWS V13.01,2013-08-25 11:04:00,
2013-08-25 07:09:00,53.7,50.1,30.61,East,90,57.0,0.0,88,0.00,,,0.00,VWS V13.01,2013-08-25 11:09:00,
2013-08-25 07:14:00,53.7,50.2,30.62,ESE,112,57.0,0.0,88,0.00,,,0.00,VWS V13.01,2013-08-25 11:14:00,
2013-08-25 07:19:00,53.7,50.2,30.61,ESE,112,57.0,0.0,88,0.00,,,0.00,VWS V13.01,2013-08-25 11:19:00,
2013-08-25 07:24:00,53.7,50.2,30.62,ESE,112,57.0,0.0,88,0.00,,,0.00,VWS V13.01,2013-08-25 11:24:00,
2013-08-25 07:29:00,53.7,50.2,30.62,ESE,112,57.0,0.0,88,0.00,,,0.00,VWS V13.01,2013-08-25 11:29:00,
2013-08-25 07:34:00,53.7,50.2,30.62,NNW,338,57.0,0.0,88,0.00,,,0.00,VWS V13.01,2013-08-25 11:34:00,
2013-08-25 07:39:00,53.7,50.2,30.62,NNW,338,57.0,0.0,88,0.00,,,0.00,VWS V13.01,2013-08-25 11:39:00,
2013-08-25 07:44:00,53.7,50.5,30.62,NNW,338,57.0,0.0,88,0.00,,,0.00,VWS V13.01,2013-08-25 11:44:00,
2013-08-25 07:49:00,53.7,50.7,30.63,NNW,338,57.0,0.0,88,0.00,,,0.00,VWS V13.01,2013-08-25 11:49:00,
2013-08-25 07:54:00,53.7,50.9,30.63,NNW,338,57.0,0.0,88,0.00,,,0.00,VWS V13.01,2013-08-25 11:54:00,
2013-08-25 07:59:00,53.7,51.1,30.63,NNW,338,57.0,0.0,88,0.00,,,0.00,VWS V13.01,2013-08-25 11:59:00,
2013-08-25 08:05:00,54.3,51.3,30.63,NNW,338,57.0,0.0,89,0.00,,,0.00,VWS V13.01,2013-08-25 12:05:00,
2013-08-25 08:10:00,54.3,51.4,30.63,NNW,338,57.0,0.0,89,0.00,,,0.00,VWS V13.01,2013-08-25 12:10:00,
2013-08-25 08:15:00,55.0,51.1,30.63,NNW,338,57.0,0.0,89,0.00,,,0.00,VWS V13.01,2013-08-25 12:15:00,
2013-08-25 08:20:00,54.3,52.0,30.63,NNW,338,57.0,0.0,89,0.00,,,0.00,VWS V13.01,2013-08-25 12:20:00,
2013-08-25 08:25:00,54.3,52.3,30.63,NNW,338,57.0,0.0,89,0.00,,,0.00,VWS V13.01,2013-08-25 12:25:00,
2013-08-25 08:30:00,55.5,52.7,30.63,NNW,338,57.0,0.0,89,0.00,,,0.00,VWS V13.01,2013-08-25 12:30:00,
2013-08-25 08:35:00,55.9,53.1,30.63,NNW,338,57.0,0.0,89,0.00,,,0.00,VWS V13.01,2013-08-25 12:35:00,
2013-08-25 08:40:00,56.8,52.7,30.62,NNW,338,57.0,0.0,89,0.00,,,0.00,VWS V13.01,2013-08-25 12:40:00,
2013-08-25 08:45:00,55.9,53.8,30.62,NNW,338,57.0,0.0,89,0.00,,,0.00,VWS V13.01,2013-08-25 12:45:00,
2013-08-25 08:50:00,55.9,54.3,30.62,NNW,338,57.0,0.0,89,0.00,,,0.00,VWS V13.01,2013-08-25 12:50:00,
2013-08-25 08:55:00,55.9,54.7,30.62,NNW,338,57.0,0.0,89,0.00,,,0.00,VWS V13.01,2013-08-25 12:55:00,
2013-08-25 09:00:00,55.9,55.2,30.63,NNW,338,57.0,0.0,89,0.00,,,0.00,VWS V13.01,2013-08-25 13:00:00,
2013-08-25 09:05:00,58.8,55.4,30.63,NNW,338,57.0,0.0,89,0.00,,,0.00,VWS V13.01,2013-08-25 13:05:00,
2013-08-25 09:10:00,58.8,55.9,30.63,WNW,292,57.0,0.0,89,0.00,,,0.00,VWS V13.01,2013-08-25 13:10:00,
2013-08-25 09:15:00,59.7,55.6,30.63,NW,315,57.0,0.0,89,0.00,,,0.00,VWS V13.01,2013-08-25 13:15:00,
2013-08-25 09:20:00,60.0,56.8,30.63,NW,315,57.0,0.0,89,0.00,,,0.00,VWS V13.01,2013-08-25 13:20:00,
2013-08-25 09:25:00,60.6,57.3,30.63,North,0,57.0,0.0,89,0.00,,,0.00,VWS V13.01,2013-08-25 13:25:00,
2013-08-25 09:30:00,60.9,57.3,30.63,North,0,57.0,0.0,88,0.00,,,0.00,VWS V13.01,2013-08-25 13:30:00,
2013-08-25 09:35:00,61.3,57.9,30.62,North,0,57.0,0.0,88,0.00,,,0.00,VWS V13.01,2013-08-25 13:35:00,
2013-08-25 09:40:00,61.7,58.2,30.62,WSW,248,57.0,0.0,88,0.00,,SCT001,0.00,VWS V13.01,2013-08-25 13:40:00,
2013-08-25 09:45:00,62.2,58.6,30.62,WSW,248,1.3,0.0,88,0.00,,SCT001,0.00,VWS V13.01,2013-08-25 13:45:00,
2013-08-25 09:51:00,62.7,59.0,30.63,NNW,338,1.3,0.0,87,0.00,,SCT001,0.00,VWS V13.01,2013-08-25 13:51:00,
2013-08-25 09:56:00,63.1,59.2,30.63,WNW,292,57.0,0.0,87,0.00,,SCT001,0.00,VWS V13.01,2013-08-25 13:56:00,
2013-08-25 10:01:00,63.3,59.6,30.62,SSW,202,57.0,0.0,87,0.00,,SCT001,0.00,VWS V13.01,2013-08-25 14:01:00,
2013-08-25 10:06:00,63.8,59.3,30.62,SW,225,57.0,0.0,86,0.00,,CLR,0.00,VWS V13.01,2013-08-25 14:06:00,
2013-08-25 10:11:00,64.2,59.7,30.62,NW,315,57.0,0.0,86,0.00,,CLR,0.00,VWS V13.01,2013-08-25 14:11:00,
2013-08-25 10:16:00,64.5,60.2,30.62,WSW,248,57.0,0.0,86,0.00,,CLR,0.00,VWS V13.01,2013-08-25 14:16:00,
2013-08-25 10:21:00,64.7,60.3,30.62,WNW,292,57.0,0.0,85,0.00,,CLR,0.00,VWS V13.01,2013-08-25 14:21:00,
2013-08-25 10:26:00,65.1,60.7,30.62,West,270,2.0,0.0,85,0.00,,CLR,0.00,VWS V13.01,2013-08-25 14:26:00,
2013-08-25 10:31:00,65.4,60.6,30.62,North,0,57.0,0.0,84,0.00,,CLR,0.00,VWS V13.01,2013-08-25 14:31:00,
2013-08-25 10:36:00,65.8,61.0,30.62,WSW,248,0.4,0.0,84,0.00,,CLR,0.00,VWS V13.01,2013-08-25 14:36:00,
2013-08-25 10:41:00,66.0,61.0,30.62,North,0,57.0,0.0,83,0.00,,CLR,0.00,VWS V13.01,2013-08-25 14:41:00,
2013-08-25 10:46:00,66.5,60.8,30.62,SW,225,4.4,0.0,82,0.00,,CLR,0.00,VWS V13.01,2013-08-25 14:46:00,
2013-08-25 10:51:00,66.7,60.7,30.62,WNW,292,1.3,0.0,81,0.00,,CLR,0.00,VWS V13.01,2013-08-25 14:51:00,
2013-08-25 10:56:00,66.9,60.5,30.62,WNW,292,4.4,0.0,81,0.00,,CLR,0.00,VWS V13.01,2013-08-25 14:56:00,
2013-08-25 11:01:00,67.2,60.8,30.62,WSW,248,2.6,0.0,80,0.00,,CLR,0.00,VWS V13.01,2013-08-25 15:01:00,
2013-08-25 11:06:00,67.6,61.2,30.62,West,270,3.5,0.0,79,0.00,,CLR,0.00,VWS V13.01,2013-08-25 15:06:00,
2013-08-25 11:11:00,67.6,60.7,30.63,WSW,248,1.5,0.0,79,0.00,,CLR,0.00,VWS V13.01,2013-08-25 15:11:00,
2013-08-25 11:16:00,67.8,60.7,30.62,West,270,57.0,0.0,78,0.00,,CLR,0.00,VWS V13.01,2013-08-25 15:16:00,
2013-08-25 11:21:00,68.1,60.8,30.62,WSW,248,6.2,0.0,77,0.00,,CLR,0.00,VWS V13.01,2013-08-25 15:21:00,
2013-08-25 11:26:00,68.5,60.6,30.62,NW,315,1.1,0.0,76,0.00,,CLR,0.00,VWS V13.01,2013-08-25 15:26:00,
2013-08-25 11:31:00,68.5,60.8,30.62,NW,315,1.3,0.0,76,0.00,,CLR,0.00,VWS V13.01,2013-08-25 15:31:00,
2013-08-25 11:36:00,68.7,61.2,30.62,WSW,248,3.5,0.0,76,0.00,,CLR,0.00,VWS V13.01,2013-08-25 15:36:00,
2013-08-25 11:41:00,69.0,60.8,30.62,West,270,0.6,0.0,75,0.00,,CLR,0.00,VWS V13.01,2013-08-25 15:41:00,
2013-08-25 11:46:00,69.2,60.4,30.62,NW,315,4.4,0.0,74,0.00,,CLR,0.00,VWS V13.01,2013-08-25 15:46:00,
2013-08-25 11:51:00,69.0,60.4,30.62,WNW,292,3.5,0.0,74,0.00,,CLR,0.00,VWS V13.01,2013-08-25 15:51:00,
2013-08-25 11:56:00,69.2,60.4,30.62,WNW,292,2.0,0.0,74,0.00,,CLR,0.00,VWS V13.01,2013-08-25 15:56:00,
2013-08-25 12:01:00,69.6,60.8,30.62,WNW,292,57.0,0.0,74,0.00,,CLR,0.00,VWS V13.01,2013-08-25 16:01:00,
2013-08-25 12:06:00,69.6,61.2,30.62,NNW,338,5.3,0.0,74,0.00,,CLR,0.00,VWS V13.01,2013-08-25 16:06:00,
2013-08-25 12:11:00,70.1,61.0,30.62,West,270,57.0,0.0,73,0.00,,CLR,0.00,VWS V13.01,2013-08-25 16:11:00,
2013-08-25 12:16:00,70.3,61.0,30.62,North,0,57.0,0.0,72,0.00,,CLR,0.00,VWS V13.01,2013-08-25 16:16:00,
2013-08-25 12:21:00,70.8,61.2,30.61,West,270,2.6,0.0,72,0.00,,CLR,0.00,VWS V13.01,2013-08-25 16:21:00,
2013-08-25 12:26:00,71.2,61.3,30.61,NNW,338,2.9,0.0,71,0.00,,CLR,0.00,VWS V13.01,2013-08-25 16:26:00,
2013-08-25 12:31:00,71.2,61.7,30.61,NW,315,2.0,0.0,71,0.00,,CLR,0.00,VWS V13.01,2013-08-25 16:31:00,
2013-08-25 12:36:00,71.2,61.3,30.61,West,270,1.3,0.0,71,0.00,,CLR,0.00,VWS V13.01,2013-08-25 16:36:00,
2013-08-25 12:41:00,71.0,60.7,30.61,South,180,1.3,0.0,70,0.00,,SCT037,0.00,VWS V13.01,2013-08-25 16:41:00,
2013-08-25 12:46:00,71.4,60.3,30.61,SSE,158,57.0,0.0,68,0.00,,SCT037,0.00,VWS V13.01,2013-08-25 16:46:00,
2013-08-25 12:51:00,71.7,60.8,30.61,SE,135,57.0,0.0,68,0.00,,SCT037,0.00,VWS V13.01,2013-08-25 16:51:00,
2013-08-25 12:56:00,72.6,61.4,30.61,North,0,57.0,0.0,68,0.00,,SCT037,0.00,VWS V13.01,2013-08-25 16:56:00,
2013-08-25 13:01:00,72.6,60.9,30.61,WSW,248,0.6,0.0,67,0.00,,SCT037,0.00,VWS V13.01,2013-08-25 17:01:00,
2013-08-25 13:06:00,72.3,61.2,30.61,WNW,292,57.0,0.0,68,0.00,,SCT043,0.00,VWS V13.01,2013-08-25 17:06:00,
2013-08-25 13:11:00,72.3,60.7,30.61,WSW,248,1.1,0.0,67,0.00,,SCT043,0.00,VWS V13.01,2013-08-25 17:11:00,
2013-08-25 13:16:00,72.3,60.2,30.61,WSW,248,2.0,0.0,67,0.00,,SCT043,0.00,VWS V13.01,2013-08-25 17:16:00,
2013-08-25 13:21:00,72.3,59.5,30.61,SSW,202,2.0,0.0,67,0.00,,SCT043,0.00,VWS V13.01,2013-08-25 17:21:00,
2013-08-25 13:26:00,71.4,59.7,30.61,SSW,202,2.0,0.0,66,0.00,,SCT043,0.00,VWS V13.01,2013-08-25 17:26:00,
2013-08-25 13:31:00,71.2,59.5,30.60,SW,225,2.0,0.0,67,0.00,,SCT043,0.00,VWS V13.01,2013-08-25 17:31:00,
2013-08-25 13:36:00,71.0,59.9,30.60,SW,225,2.0,0.0,67,0.00,,BKN049,0.00,VWS V13.01,2013-08-25 17:36:00,
2013-08-25 13:41:00,71.2,60.1,30.60,WSW,248,2.0,0.0,68,0.00,,BKN049,0.00,VWS V13.01,2013-08-25 17:41:00,
2013-08-25 13:46:00,71.7,60.3,30.60,West,270,57.0,0.0,68,0.00,,BKN049,0.00,VWS V13.01,2013-08-25 17:46:00,
2013-08-25 13:51:00,71.4,61.0,30.59,WNW,292,57.0,0.0,68,0.00,,BKN049,0.00,VWS V13.01,2013-08-25 17:51:00,
2013-08-25 13:56:00,73.2,60.3,30.59,SSW,202,0.8,0.0,65,0.00,,BKN049,0.00,VWS V13.01,2013-08-25 17:56:00,
2013-08-25 14:01:00,73.2,60.3,30.59,North,0,57.0,0.0,64,0.00,,SCT060,0.00,VWS V13.01,2013-08-25 18:01:00,
2013-08-25 14:06:00,71.4,60.5,30.59,SSW,202,57.0,0.0,68,0.00,,SCT060,0.00,VWS V13.01,2013-08-25 18:06:00,
2013-08-25 14:11:00,73.0,61.0,30.59,SSW,202,57.0,0.0,66,0.00,,SCT060,0.00,VWS V13.01,2013-08-25 18:11:00,
2013-08-25 14:16:00,73.2,61.6,30.58,South,180,57.0,0.0,64,0.00,,SCT060,0.00,VWS V13.01,2013-08-25 18:16:00,
2013-08-25 14:22:00,73.5,61.0,30.58,SE,135,57.0,0.0,64,0.00,,SCT060,0.00,VWS V13.01,2013-08-25 18:22:00,
2013-08-25 14:27:00,73.5,61.6,30.58,NE,45,1.7,0.0,64,0.00,,SCT060,0.00,VWS V13.01,2013-08-25 18:27:00,
2013-08-25 14:32:00,75.7,60.6,30.57,NNE,22,57.0,0.0,62,0.00,,SCT060,0.00,VWS V13.01,2013-08-25 18:32:00,
2013-08-25 14:37:00,75.9,62.2,30.57,NE,45,57.0,0.0,62,0.00,,SCT060,0.00,VWS V13.01,2013-08-25 18:37:00,
2013-08-25 14:42:00,75.9,61.0,30.58,ENE,68,57.0,0.0,62,0.00,,BKN060,0.00,VWS V13.01,2013-08-25 18:42:00,
2013-08-25 14:47:00,75.9,61.0,30.58,ENE,68,57.0,0.0,60,0.00,,BKN060,0.00,VWS V13.01,2013-08-25 18:47:00,
2013-08-25 14:52:00,75.7,60.7,30.58,East,90,57.0,0.0,60,0.00,,BKN060,0.00,VWS V13.01,2013-08-25 18:52:00,
2013-08-25 14:57:00,75.7,60.9,30.57,East,90,57.0,0.0,60,0.00,,BKN060,0.00,VWS V13.01,2013-08-25 18:57:00,
2013-08-25 15:02:00,75.0,60.7,30.56,East,90,57.0,0.0,61,0.00,,BKN060,0.00,VWS V13.01,2013-08-25 19:02:00,
2013-08-25 15:07:00,75.0,60.1,30.56,East,90,57.0,0.0,61,0.00,,BKN060,0.00,VWS V13.01,2013-08-25 19:07:00,
2013-08-25 15:12:00,75.0,60.5,30.57,East,90,57.0,0.0,61,0.00,,BKN060,0.00,VWS V13.01,2013-08-25 19:12:00,
2013-08-25 15:17:00,74.3,59.8,30.56,East,90,57.0,0.0,61,0.00,,BKN060,0.00,VWS V13.01,2013-08-25 19:17:00,
2013-08-25 15:22:00,74.3,60.3,30.56,East,90,57.0,0.0,61,0.00,,BKN060,0.00,VWS V13.01,2013-08-25 19:22:00,
2013-08-25 15:27:00,74.3,60.1,30.56,East,90,57.0,0.0,61,0.00,,BKN060,0.00,VWS V13.01,2013-08-25 19:27:00,
2013-08-25 15:32:00,73.7,59.9,30.56,East,90,57.0,0.0,62,0.00,,BKN060,0.00,VWS V13.01,2013-08-25 19:32:00,
2013-08-25 15:37:00,73.7,60.5,30.56,East,90,57.0,0.0,62,0.00,,BKN060,0.00,VWS V13.01,2013-08-25 19:37:00,
2013-08-25 15:42:00,73.9,60.7,30.56,ENE,68,57.0,0.0,63,0.00,,OVC060,0.00,VWS V13.01,2013-08-25 19:42:00,
2013-08-25 15:47:00,73.9,61.2,30.56,ESE,112,57.0,0.0,63,0.00,,OVC060,0.00,VWS V13.01,2013-08-25 19:47:00,
2013-08-25 15:52:00,73.9,60.5,30.57,SW,225,57.0,0.0,63,0.00,,OVC060,0.00,VWS V13.01,2013-08-25 19:52:00,
2013-08-25 15:57:00,75.5,60.5,30.56,SE,135,57.0,0.0,59,0.00,,OVC060,0.00,VWS V13.01,2013-08-25 19:57:00,
2013-08-25 16:02:00,75.3,60.5,30.56,SE,135,57.0,0.0,60,0.00,,BKN060,0.00,VWS V13.01,2013-08-25 20:02:00,
2013-08-25 16:07:00,75.3,60.8,30.56,SE,135,57.0,0.0,60,0.00,,BKN060,0.00,VWS V13.01,2013-08-25 20:07:00,
2013-08-25 16:12:00,75.3,60.7,30.56,SE,135,57.0,0.0,60,0.00,,BKN060,0.00,VWS V13.01,2013-08-25 20:12:00,
2013-08-25 16:17:00,75.3,60.7,30.56,SE,135,57.0,0.0,60,0.00,,BKN060,0.00,VWS V13.01,2013-08-25 20:17:00,
2013-08-25 16:22:00,75.0,60.4,30.56,SSE,158,57.0,0.0,61,0.00,,BKN060,0.00,VWS V13.01,2013-08-25 20:22:00,
2013-08-25 16:27:00,75.3,60.4,30.56,SSE,158,57.0,0.0,59,0.00,,BKN060,0.00,VWS V13.01,2013-08-25 20:27:00,
2013-08-25 16:32:00,75.0,59.9,30.56,South,180,57.0,0.0,59,0.00,,SCT060,0.00,VWS V13.01,2013-08-25 20:32:00,
2013-08-25 16:37:00,75.3,59.5,30.56,SW,225,57.0,0.0,59,0.00,,SCT060,0.00,VWS V13.01,2013-08-25 20:37:00,
2013-08-25 16:42:00,75.3,59.2,30.56,SSW,202,2.4,0.0,59,0.00,,SCT060,0.00,VWS V13.01,2013-08-25 20:42:00,
2013-08-25 16:47:00,75.3,59.2,30.56,SE,135,1.7,0.0,59,0.00,,SCT060,0.00,VWS V13.01,2013-08-25 20:47:00,
2013-08-25 16:52:00,75.3,59.4,30.55,WSW,248,2.2,0.0,59,0.00,,SCT060,0.00,VWS V13.01,2013-08-25 20:52:00,
2013-08-25 16:57:00,75.3,58.7,30.55,SSW,202,2.4,0.0,59,0.00,,SCT060,0.00,VWS V13.01,2013-08-25 20:57:00,
2013-08-25 17:02:00,75.3,59.0,30.56,South,180,3.1,0.0,57,0.00,,CLR,0.00,VWS V13.01,2013-08-25 21:02:00,
2013-08-25 17:07:00,75.3,59.2,30.55,SE,135,2.2,0.0,57,0.00,,CLR,0.00,VWS V13.01,2013-08-25 21:07:00,
2013-08-25 17:12:00,75.3,58.7,30.55,SSW,202,3.5,0.0,57,0.00,,CLR,0.00,VWS V13.01,2013-08-25 21:12:00,
2013-08-25 17:17:00,75.3,58.5,30.54,SW,225,2.2,0.0,56,0.00,,CLR,0.00,VWS V13.01,2013-08-25 21:17:00,
2013-08-25 17:22:00,75.3,59.0,30.54,SSE,158,57.0,0.0,56,0.00,,CLR,0.00,VWS V13.01,2013-08-25 21:22:00,
2013-08-25 17:27:00,75.3,59.5,30.54,SSW,202,57.0,0.0,56,0.00,,CLR,0.00,VWS V13.01,2013-08-25 21:27:00,
2013-08-25 17:32:00,75.3,58.5,30.54,ESE,112,1.5,0.0,56,0.00,,CLR,0.00,VWS V13.01,2013-08-25 21:32:00,
2013-08-25 17:37:00,75.3,59.0,30.54,SE,135,57.0,0.0,56,0.00,,CLR,0.00,VWS V13.01,2013-08-25 21:37:00,
2013-08-25 17:42:00,75.3,58.8,30.54,North,0,57.0,0.0,56,0.00,,CLR,0.00,VWS V13.01,2013-08-25 21:42:00,
2013-08-25 17:47:00,75.3,59.2,30.54,ESE,112,57.0,0.0,56,0.00,,CLR,0.00,VWS V13.01,2013-08-25 21:47:00,
2013-08-25 17:52:00,75.3,58.3,30.54,SSE,158,57.0,0.0,56,0.00,,CLR,0.00,VWS V13.01,2013-08-25 21:52:00,
2013-08-25 17:57:00,75.3,59.2,30.54,SSW,202,57.0,0.0,56,0.00,,CLR,0.00,VWS V13.01,2013-08-25 21:57:00,
2013-08-25 18:02:00,74.8,58.6,30.54,South,180,57.0,0.0,57,0.00,,CLR,0.00,VWS V13.01,2013-08-25 22:02:00,
2013-08-25 18:07:00,74.6,58.6,30.54,SSW,202,0.6,0.0,57,0.00,,CLR,0.00,VWS V13.01,2013-08-25 22:07:00,
2013-08-25 18:12:00,74.4,58.2,30.54,SE,135,0.6,0.0,58,0.00,,CLR,0.00,VWS V13.01,2013-08-25 22:12:00,
2013-08-25 18:17:00,74.4,58.7,30.54,SE,135,0.6,0.0,57,0.00,,CLR,0.00,VWS V13.01,2013-08-25 22:17:00,
2013-08-25 18:22:00,74.4,57.9,30.54,SSE,158,0.6,0.0,57,0.00,,CLR,0.00,VWS V13.01,2013-08-25 22:22:00,
2013-08-25 18:27:00,74.4,57.9,30.53,SE,135,1.7,0.0,57,0.00,,CLR,0.00,VWS V13.01,2013-08-25 22:27:00,
2013-08-25 18:32:00,74.4,58.2,30.54,South,180,1.1,0.0,57,0.00,,CLR,0.00,VWS V13.01,2013-08-25 22:32:00,
2013-08-25 18:37:00,74.4,58.0,30.53,SE,135,1.1,0.0,57,0.00,,CLR,0.00,VWS V13.01,2013-08-25 22:37:00,
2013-08-25 18:42:00,73.7,58.5,30.54,SE,135,1.1,0.0,59,0.00,,CLR,0.00,VWS V13.01,2013-08-25 22:42:00,
2013-08-25 18:47:00,73.5,58.8,30.53,SE,135,1.1,0.0,59,0.00,,CLR,0.00,VWS V13.01,2013-08-25 22:47:00,
2013-08-25 18:52:00,73.4,58.8,30.53,SE,135,1.1,0.0,60,0.00,,CLR,0.00,VWS V13.01,2013-08-25 22:52:00,
2013-08-25 18:58:00,73.2,58.5,30.54,SE,135,1.1,0.0,60,0.00,,CLR,0.00,VWS V13.01,2013-08-25 22:58:00,
2013-08-25 19:03:00,73.0,57.8,30.53,SW,225,1.1,0.0,59,0.00,,CLR,0.00,VWS V13.01,2013-08-25 23:03:00,
2013-08-25 19:08:00,72.6,57.8,30.53,South,180,0.2,0.0,60,0.00,,CLR,0.00,VWS V13.01,2013-08-25 23:08:00,
2013-08-25 19:13:00,73.0,58.1,30.53,SSW,202,0.2,0.0,59,0.00,,CLR,0.00,VWS V13.01,2013-08-25 23:13:00,
2013-08-25 19:18:00,72.3,57.9,30.53,SSW,202,0.2,0.0,61,0.00,,CLR,0.00,VWS V13.01,2013-08-25 23:18:00,
2013-08-25 19:23:00,72.1,57.5,30.53,SSW,202,0.2,0.0,61,0.00,,CLR,0.00,VWS V13.01,2013-08-25 23:23:00,
2013-08-25 19:28:00,72.1,57.7,30.53,SSW,202,0.2,0.0,61,0.00,,CLR,0.00,VWS V13.01,2013-08-25 23:28:00,
2013-08-25 19:33:00,72.1,57.6,30.53,SSW,202,0.2,0.0,61,0.00,,CLR,0.00,VWS V13.01,2013-08-25 23:33:00,
2013-08-25 19:38:00,72.1,57.6,30.53,SSW,202,0.2,0.0,61,0.00,,CLR,0.00,VWS V13.01,2013-08-25 23:38:00,
2013-08-25 19:43:00,72.1,57.5,30.53,SSW,202,0.2,0.0,61,0.00,,CLR,0.00,VWS V13.01,2013-08-25 23:43:00,
2013-08-25 19:48:00,72.1,57.1,30.53,SSW,202,0.2,0.0,61,0.00,,CLR,0.00,VWS V13.01,2013-08-25 23:48:00,
2013-08-25 19:53:00,72.1,56.7,30.53,SSW,202,0.2,0.0,61,0.00,,CLR,0.00,VWS V13.01,2013-08-25 23:53:00,
2013-08-25 19:58:00,72.1,56.7,30.53,SSW,202,0.2,0.0,61,0.00,,CLR,0.00,VWS V13.01,2013-08-25 23:58:00,
2013-08-25 20:03:00,72.1,56.7,30.53,SSW,202,0.2,0.0,61,0.00,,CLR,0.00,VWS V13.01,2013-08-26 00:03:00,
2013-08-25 20:08:00,72.1,56.3,30.53,SSW,202,0.2,0.0,61,0.00,,CLR,0.00,VWS V13.01,2013-08-26 00:08:00,
2013-08-25 20:13:00,72.1,55.8,30.53,SSW,202,0.2,0.0,61,0.00,,CLR,0.00,VWS V13.01,2013-08-26 00:13:00,
2013-08-25 20:18:00,66.9,55.8,30.53,SSW,202,0.2,0.0,67,0.00,,CLR,0.00,VWS V13.01,2013-08-26 00:18:00,
2013-08-25 20:23:00,66.9,55.5,30.53,SSW,202,0.2,0.0,67,0.00,,CLR,0.00,VWS V13.01,2013-08-26 00:23:00,
2013-08-25 20:28:00,66.9,55.4,30.53,SSW,202,0.2,0.0,67,0.00,,CLR,0.00,VWS V13.01,2013-08-26 00:28:00,
2013-08-25 20:33:00,66.9,55.3,30.53,SSW,202,0.2,0.0,67,0.00,,CLR,0.00,VWS V13.01,2013-08-26 00:33:00,
2013-08-25 20:38:00,66.9,54.9,30.53,SSW,202,0.2,0.0,67,0.00,,CLR,0.00,VWS V13.01,2013-08-26 00:38:00,
2013-08-25 20:43:00,64.7,54.9,30.53,SSW,202,0.2,0.0,70,0.00,,CLR,0.00,VWS V13.01,2013-08-26 00:43:00,
2013-08-25 20:48:00,64.7,54.6,30.53,SSW,202,0.2,0.0,70,0.00,,CLR,0.00,VWS V13.01,2013-08-26 00:48:00,
2013-08-25 20:53:00,64.7,54.6,30.54,SSW,202,0.2,0.0,70,0.00,,CLR,0.00,VWS V13.01,2013-08-26 00:53:00,
2013-08-25 20:58:00,64.7,54.7,30.54,SSW,202,0.2,0.0,70,0.00,,CLR,0.00,VWS V13.01,2013-08-26 00:58:00,
2013-08-25 21:03:00,63.3,54.1,30.54,SSW,202,0.2,0.0,72,0.00,,CLR,0.00,VWS V13.01,2013-08-26 01:03:00,
2013-08-25 21:08:00,63.3,54.3,30.54,SSW,202,0.2,0.0,72,0.00,,CLR,0.00,VWS V13.01,2013-08-26 01:08:00,
2013-08-25 21:13:00,63.1,54.1,30.54,SSW,202,0.2,0.0,73,0.00,,CLR,0.00,VWS V13.01,2013-08-26 01:13:00,
2013-08-25 21:18:00,63.1,53.9,30.54,SSW,202,0.2,0.0,73,0.00,,CLR,0.00,VWS V13.01,2013-08-26 01:18:00,
2013-08-25 21:23:00,63.1,53.8,30.54,SSW,202,0.2,0.0,73,0.00,,CLR,0.00,VWS V13.01,2013-08-26 01:23:00,
2013-08-25 21:28:00,63.1,54.0,30.54,SSW,202,0.2,0.0,73,0.00,,CLR,0.00,VWS V13.01,2013-08-26 01:28:00,
2013-08-25 21:33:00,62.4,53.8,30.54,SSW,202,0.2,0.0,74,0.00,,CLR,0.00,VWS V13.01,2013-08-26 01:33:00,
2013-08-25 21:38:00,61.8,54.0,30.54,SSW,202,0.2,0.0,74,0.00,,CLR,0.00,VWS V13.01,2013-08-26 01:38:00,
2013-08-25 21:43:00,61.8,54.0,30.54,SSW,202,0.2,0.0,74,0.00,,CLR,0.00,VWS V13.01,2013-08-26 01:43:00,
2013-08-25 21:48:00,62.4,53.7,30.54,SSW,202,0.2,0.0,74,0.00,,CLR,0.00,VWS V13.01,2013-08-26 01:48:00,
2013-08-25 21:53:00,62.4,53.7,30.54,SSW,202,0.2,0.0,74,0.00,,CLR,0.00,VWS V13.01,2013-08-26 01:53:00,
2013-08-25 21:58:00,62.4,53.9,30.54,SSW,202,0.2,0.0,74,0.00,,CLR,0.00,VWS V13.01,2013-08-26 01:58:00,
2013-08-25 22:03:00,61.5,54.0,30.54,SSW,202,0.2,0.0,76,0.00,,CLR,0.00,VWS V13.01,2013-08-26 02:03:00,
2013-08-25 22:08:00,61.5,53.7,30.54,SSW,202,0.2,0.0,76,0.00,,CLR,0.00,VWS V13.01,2013-08-26 02:08:00,
2013-08-25 22:13:00,61.5,54.0,30.54,SSW,202,0.2,0.0,76,0.00,,CLR,0.00,VWS V13.01,2013-08-26 02:13:00,
2013-08-25 22:18:00,61.5,53.7,30.54,SSW,202,0.2,0.0,76,0.00,,CLR,0.00,VWS V13.01,2013-08-26 02:18:00,
2013-08-25 22:23:00,61.5,53.5,30.54,SSW,202,0.2,0.0,76,0.00,,CLR,0.00,VWS V13.01,2013-08-26 02:23:00,
2013-08-25 22:28:00,61.5,53.7,30.54,SSW,202,0.2,0.0,76,0.00,,CLR,0.00,VWS V13.01,2013-08-26 02:28:00,
2013-08-25 22:33:00,61.5,53.7,30.54,SSW,202,0.2,0.0,76,0.00,,CLR,0.00,VWS V13.01,2013-08-26 02:33:00,
2013-08-25 22:38:00,60.6,53.9,30.55,SSW,202,0.2,0.0,78,0.00,,CLR,0.00,VWS V13.01,2013-08-26 02:38:00,
2013-08-25 22:43:00,61.5,53.7,30.55,SSW,202,0.2,0.0,76,0.00,,CLR,0.00,VWS V13.01,2013-08-26 02:43:00,
2013-08-25 22:48:00,60.4,53.7,30.55,SSW,202,0.2,0.0,78,0.00,,CLR,0.00,VWS V13.01,2013-08-26 02:48:00,
2013-08-25 22:53:00,60.6,53.5,30.55,SSW,202,0.2,0.0,78,0.00,,CLR,0.00,VWS V13.01,2013-08-26 02:53:00,
2013-08-25 22:58:00,59.9,53.7,30.56,SSW,202,0.2,0.0,79,0.00,,CLR,0.00,VWS V13.01,2013-08-26 02:58:00,
2013-08-25 23:04:00,59.9,53.2,30.55,SSW,202,0.2,0.0,79,0.00,,CLR,0.00,VWS V13.01,2013-08-26 03:04:00,
2013-08-25 23:09:00,59.5,53.5,30.56,SSW,202,0.2,0.0,80,0.00,,CLR,0.00,VWS V13.01,2013-08-26 03:09:00,
2013-08-25 23:14:00,59.5,53.5,30.55,SSW,202,0.2,0.0,80,0.00,,CLR,0.00,VWS V13.01,2013-08-26 03:14:00,
2013-08-25 23:19:00,59.1,53.1,30.56,SSW,202,0.2,0.0,80,0.00,,CLR,0.00,VWS V13.01,2013-08-26 03:19:00,
2013-08-25 23:24:00,59.0,53.1,30.56,SSW,202,0.2,0.0,80,0.00,,CLR,0.00,VWS V13.01,2013-08-26 03:24:00,
2013-08-25 23:29:00,59.3,52.7,30.55,SSW,202,0.2,0.0,80,0.00,,CLR,0.00,VWS V13.01,2013-08-26 03:29:00,
2013-08-25 23:34:00,59.3,53.0,30.55,SSW,202,0.2,0.0,80,0.00,,CLR,0.00,VWS V13.01,2013-08-26 03:34:00,
2013-08-25 23:39:00,58.8,52.8,30.56,SSW,202,0.2,0.0,81,0.00,,CLR,0.00,VWS V13.01,2013-08-26 03:39:00,
2013-08-25 23:44:00,58.8,52.8,30.56,SSW,202,0.2,0.0,81,0.00,,CLR,0.00,VWS V13.01,2013-08-26 03:44:00,
2013-08-25 23:49:00,58.8,52.4,30.56,SSW,202,0.2,0.0,81,0.00,,CLR,0.00,VWS V13.01,2013-08-26 03:49:00,
2013-08-25 23:54:00,58.8,52.4,30.56,SSW,202,0.2,0.0,81,0.00,,CLR,0.00,VWS V13.01,2013-08-26 03:54:00,
2013-08-25 23:59:00,58.8,52.6,30.56,SSW,202,0.2,0.0,81,0.00,,CLR,0.00,VWS V13.01,2013-08-26 03:59:00,